This is the latest recevied weather packets stored in our database for station/object OK3MS-5. If no packets are shown the sender has not sent any weather packets the latest 10 day(s).
| Time | Temp. | Humidity | Pressure | Rain* | Wind** | Luminosity | Snow |
|---|---|---|---|---|---|---|---|
| 1787377802 | 12.78° C | 96% | 1014 hPa | 0 mm | - | 72 W/m² | - |
| 1787377504 | 12.78° C | 96% | 1013.9 hPa | 0 mm | - | 51 W/m² | - |
| 1787377203 | 12.78° C | 96% | 1013.9 hPa | 0 mm | - | 42 W/m² | - |
| 1787376902 | 12.78° C | 96% | 1013.9 hPa | 0 mm | - | 54 W/m² | - |
| 1787376604 | 12.78° C | 97% | 1013.9 hPa | 0 mm | - | 53 W/m² | - |
| 1787376302 | 12.78° C | 97% | 1014 hPa | 0 mm | - | 70 W/m² | - |
| 1787376004 | 12.22° C | 98% | 1013.9 hPa | 0 mm | - | 66 W/m² | - |
| 1787375702 | 12.22° C | 99% | 1013.9 hPa | 0 mm | - | 44 W/m² | - |
| 1787375404 | 12.22° C | 99% | 1013.9 hPa | 0 mm | - | 38 W/m² | - |
| 1787375103 | 12.22° C | 99% | 1013.9 hPa | 0 mm | - | 38 W/m² | - |
| 1787374802 | 12.22° C | 99% | 1013.9 hPa | 0 mm | - | 45 W/m² | - |
| 1787374504 | 11.67° C | 99% | 1014.1 hPa | 0 mm | - | 43 W/m² | - |
| 1787374205 | 11.67° C | 99% | 1014 hPa | 0 mm | - | 39 W/m² | - |
| 1787373902 | 11.67° C | 99% | 1013.9 hPa | 0 mm | - | 32 W/m² | - |
| 1787373605 | 11.11° C | 99% | 1013.9 hPa | 0 mm | - | 23 W/m² | - |
| 1787373302 | 11.11° C | 99% | 1014 hPa | 0 mm | - | 19 W/m² | - |
| 1787373004 | 11.11° C | 99% | 1013.9 hPa | 0 mm | - | 16 W/m² | - |
| 1787372702 | 11.11° C | 99% | 1013.7 hPa | 0 mm | - | 12 W/m² | - |
| 1787372404 | 11.11° C | 99% | 1013.8 hPa | 0 mm | - | 9 W/m² | - |
| 1787372102 | 11.11° C | 99% | 1013.7 hPa | 0 mm | - | 6 W/m² | - |
| 1787371803 | 11.67° C | 99% | 1013.6 hPa | 0 mm | - | 5 W/m² | - |
| 1787371502 | 11.67° C | 99% | 1013.5 hPa | 0 mm | - | 4 W/m² | - |
| 1787371202 | 11.11° C | 99% | 1013.4 hPa | 0 mm | - | 2 W/m² | - |
| 1787370903 | 11.11° C | 99% | 1013.3 hPa | 0 mm | - | 2 W/m² | - |
| 1787370605 | 11.67° C | 99% | 1013.2 hPa | 0 mm | - | 1 W/m² | - |
* Rain latest hour (hover to see other rain measurements)
** Current wind speed in m/s (hover to see current wind gust speed)